Date String (YYYY-MM-DD hh:mm:ss) UTC,Instrument flags,Ambient pressure (hPa),Sample flow (lpm),Bypass flow (lpm),Sample temperature (°C),Ambient temperature (°C),ASC tube jacket temperature (°C),LED temperature (°C),Box temperature (°C),Sample RH (%),Span deviation,Mass concentration (μg/m³),Mass concentration (μg/m³),Mass concentration (μg/m³)
DateTimeUTC,F1_M11,P_M11,Q1_M11,Q2_M11,T1_M11,T2_M11,T3_M11,T4_M11,T5_M11,U1_M11,ZSPAN_M11,X2_M11,X0_M11,X1_M11
2022-04-09 09:00:00,,0821.0,5.00,0.00,27.3,26.5,00.0,36.2,29.1,08.0,0000.0,0002.57,0006.43,0001.39
2022-04-09 09:01:00,,0821.0,5.00,0.00,27.3,26.5,00.0,36.2,29.1,08.0,0000.0,0002.55,0005.66,0001.38
2022-04-09 09:02:00,,0821.0,5.00,0.00,27.3,26.5,00.0,36.2,29.0,08.0,0000.0,0002.57,0006.15,0001.38
2022-04-09 09:03:00,,0821.0,4.99,0.00,27.3,26.5,00.0,36.2,29.1,07.9,0000.0,0002.67,0006.37,0001.39
2022-04-09 09:04:00,,0821.0,5.00,0.00,27.3,26.5,00.0,36.2,29.1,07.9,0000.0,0002.78,0006.66,0001.40
2022-04-09 09:05:00,,0821.0,4.99,0.00,27.3,26.5,00.0,36.2,29.1,07.9,0000.0,0002.81,0007.00,0001.39
2022-04-09 09:06:00,,0821.0,5.00,0.00,27.3,26.5,00.0,36.2,29.1,07.9,0000.0,0002.81,0007.00,0001.38
2022-04-09 09:07:00,,0820.9,4.99,0.00,27.3,26.5,00.0,36.2,29.1,07.9,0000.0,0002.78,0006.85,0001.38
2022-04-09 09:08:00,,0820.9,5.02,0.00,27.3,26.4,00.0,36.2,29.1,07.8,0000.0,0002.80,0007.07,0001.38
2022-04-09 09:09:00,,0821.0,5.00,0.00,27.3,26.4,00.0,36.2,29.1,07.9,0000.0,0002.77,0007.16,0001.37
2022-04-09 09:10:00,,0820.9,4.99,0.00,27.3,26.4,00.0,36.2,29.1,07.9,0000.0,0002.83,0008.09,0001.37
2022-04-09 09:11:00,,0821.0,5.00,0.00,27.3,26.4,00.0,36.2,29.1,07.9,0000.0,0002.85,0008.23,0001.36
2022-04-09 09:12:00,,0820.9,5.01,0.00,27.3,26.4,00.0,36.2,29.1,07.9,0000.0,0002.87,0008.17,0001.36
2022-04-09 09:13:00,,0820.9,5.00,0.00,27.3,26.4,00.0,36.2,29.1,07.8,0000.0,0002.83,0008.19,0001.35
2022-04-09 09:14:00,,0821.0,4.99,0.00,27.3,26.4,00.0,36.2,29.1,07.9,0000.0,0002.75,0008.32,0001.34
2022-04-09 09:15:00,,0821.0,5.00,0.00,27.3,26.4,00.0,36.2,29.1,07.9,0000.0,0002.70,0008.95,0001.33
2022-04-09 09:16:00,,0820.9,5.01,0.00,27.3,26.4,00.0,36.2,29.1,07.9,0000.0,0002.65,0008.81,0001.34
2022-04-09 09:17:00,,0820.9,5.01,0.00,27.3,26.5,00.0,36.3,29.1,07.9,0000.0,0002.70,0009.39,0001.36
2022-04-09 09:18:00,,0820.9,4.99,0.00,27.3,26.4,00.0,36.3,29.1,07.9,0000.0,0002.70,0009.58,0001.36
2022-04-09 09:19:00,,0820.9,5.00,0.00,27.3,26.4,00.0,36.3,29.1,07.9,0000.0,0002.67,0009.37,0001.35
2022-04-09 09:20:00,,0820.8,5.01,0.00,27.3,26.4,00.0,36.3,29.1,08.0,0000.0,0002.65,0009.28,0001.35
2022-04-09 09:21:00,,0820.8,4.99,0.00,27.3,26.4,00.0,36.3,29.1,08.0,0000.0,0002.62,0008.47,0001.35
2022-04-09 09:22:00,,0820.8,4.98,0.00,27.3,26.5,00.0,36.3,29.1,07.9,0000.0,0002.60,0008.31,0001.35
2022-04-09 09:23:00,,0820.8,5.02,0.00,27.3,26.4,00.0,36.3,29.1,07.9,0000.0,0002.61,0008.40,0001.36
2022-04-09 09:24:00,,0820.8,4.98,0.00,27.3,26.4,00.0,36.3,29.1,07.8,0000.0,0002.61,0008.14,0001.37
2022-04-09 09:25:00,,0820.7,5.00,0.00,27.3,26.4,00.0,36.3,29.1,07.9,0000.0,0002.57,0007.72,0001.37
2022-04-09 09:26:00,,0820.7,5.00,0.00,27.3,26.4,00.0,36.3,29.1,07.9,0000.0,0002.57,0007.17,0001.38
2022-04-09 09:27:00,,0820.7,5.00,0.00,27.3,26.4,00.0,36.3,29.1,07.9,0000.0,0002.54,0007.01,0001.37
2022-04-09 09:28:00,,0820.7,5.01,0.00,27.3,26.5,00.0,36.3,29.2,07.9,0000.0,0002.47,0006.68,0001.35
2022-04-09 09:29:00,,0820.7,5.00,0.00,27.3,26.5,00.0,36.3,29.2,07.9,0000.0,0002.48,0006.30,0001.35
2022-04-09 09:30:00,,0820.6,4.99,0.00,27.3,26.5,00.0,36.3,29.2,07.9,0000.0,0002.51,0006.41,0001.35
2022-04-09 09:31:00,,0820.6,4.99,0.00,27.3,26.5,00.0,36.3,29.1,07.8,0000.0,0002.56,0007.11,0001.35
2022-04-09 09:32:00,,0820.6,5.00,0.00,27.3,26.5,00.0,36.3,29.1,07.9,0000.0,0002.48,0007.57,0001.35
2022-04-09 09:33:00,,0820.5,5.00,0.00,27.3,26.5,00.0,36.3,29.1,07.9,0000.0,0002.47,0007.54,0001.36
2022-04-09 09:34:00,,0820.6,4.99,0.00,27.3,26.5,00.0,36.3,29.1,07.9,0000.0,0002.45,0007.46,0001.36
2022-04-09 09:35:00,,0820.6,5.02,0.00,27.3,26.5,00.0,36.3,29.1,07.9,0000.0,0002.45,0007.45,0001.35
2022-04-09 09:36:00,,0820.5,5.01,0.00,27.3,26.4,00.0,36.3,29.1,08.0,0000.0,0002.51,0007.64,0001.34
2022-04-09 09:37:00,,0820.5,4.99,0.00,27.3,26.4,00.0,36.3,29.0,07.9,0000.0,0002.50,0007.47,0001.32
2022-04-09 09:38:00,,0820.5,4.99,0.00,27.3,26.4,00.0,36.3,29.0,07.9,0000.0,0002.57,0007.62,0001.32
2022-04-09 09:39:00,,0820.4,4.99,0.00,27.3,26.4,00.0,36.3,29.0,07.9,0000.0,0002.58,0007.10,0001.34
2022-04-09 09:40:00,,0820.4,5.01,0.00,27.3,26.4,00.0,36.3,29.0,07.9,0000.0,0002.52,0006.97,0001.34
2022-04-09 09:41:00,,0820.4,5.00,0.00,27.3,26.4,00.0,36.3,29.0,07.9,0000.0,0002.47,0006.83,0001.34
2022-04-09 09:42:00,,0820.4,5.00,0.00,27.3,26.4,00.0,36.3,29.0,07.9,0000.0,0002.45,0006.68,0001.33
2022-04-09 09:43:00,,0820.4,5.00,0.00,27.3,26.4,00.0,36.3,29.0,07.8,0000.0,0002.51,0007.47,0001.32
2022-04-09 09:44:00,,0820.4,5.00,0.00,27.3,26.4,00.0,36.3,29.0,07.8,0000.0,0002.53,0007.64,0001.31
2022-04-09 09:45:00,,0820.4,5.00,0.00,27.3,26.4,00.0,36.3,29.0,07.9,0000.0,0002.53,0007.88,0001.30
2022-04-09 09:46:00,,0820.4,5.00,0.00,27.3,26.4,00.0,36.3,29.0,07.8,0000.0,0002.58,0008.48,0001.30
2022-04-09 09:47:00,,0820.4,4.99,0.00,27.3,26.4,00.0,36.3,29.0,07.8,0000.0,0002.54,0008.72,0001.29
2022-04-09 09:48:00,,0820.5,5.00,0.00,27.3,26.4,00.0,36.3,29.0,07.8,0000.0,0002.51,0008.65,0001.30
2022-04-09 09:49:00,,0820.4,5.02,0.00,27.3,26.4,00.0,36.3,29.0,07.8,0000.0,0002.47,0008.53,0001.32
2022-04-09 09:50:00,,0820.4,4.99,0.00,27.3,26.4,00.0,36.3,29.0,07.8,0000.0,0002.44,0008.45,0001.32
2022-04-09 09:51:00,,0820.4,5.00,0.00,27.3,26.4,00.0,36.3,29.0,07.8,0000.0,0002.56,0008.61,0001.33
2022-04-09 09:52:00,,0820.4,4.99,0.00,27.3,26.4,00.0,36.3,29.1,07.8,0000.0,0002.62,0008.73,0001.33
2022-04-09 09:53:00,,0820.4,5.00,0.00,27.3,26.4,00.0,36.3,29.1,07.8,0000.0,0002.59,0008.42,0001.33
2022-04-09 09:54:00,,0820.4,5.00,0.00,27.3,26.4,00.0,36.3,29.0,07.8,0000.0,0002.53,0007.40,0001.34
2022-04-09 09:55:00,,0820.4,5.00,0.00,27.3,26.4,00.0,36.3,29.1,07.8,0000.0,0002.52,0007.21,0001.35
2022-04-09 09:56:00,,0820.4,5.02,0.00,27.3,26.4,00.0,36.3,29.0,07.8,0000.0,0002.46,0006.67,0001.36
2022-04-09 09:57:00,,0820.4,4.99,0.00,27.3,26.4,00.0,36.3,29.1,07.8,0000.0,0002.42,0005.65,0001.37
2022-04-09 09:58:00,,0820.5,4.99,0.00,27.3,26.4,00.0,36.3,29.0,07.9,0000.0,0002.36,0004.52,0001.36
2022-04-09 09:59:00,,0820.5,4.99,0.00,27.3,26.4,00.0,36.3,29.0,07.9,0000.0,0002.36,0004.43,0001.36
